Time,TemperatureF,DewpointF,PressureIn,WindDirection,WindDirectionDegrees,WindSpeedMPH,WindSpeedGustMPH,Humidity,HourlyPrecipIn,Conditions,Clouds,dailyrainin,SolarRadiationWatts/m^2,SoftwareType,DateUTC
2013-07-29 00:04:00,61.7,51.8,30.00,East,80,2.0,2.0,70,0.00,,,0.00,0,Wunderground v.1.15,2013-07-29 05:04:00,
2013-07-29 00:09:00,62.2,51.9,30.00,East,80,1.0,3.0,69,0.00,,,0.00,0,Wunderground v.1.15,2013-07-29 05:09:00,
2013-07-29 00:15:00,62.3,52.0,30.00,East,80,1.0,2.0,69,0.00,,,0.00,0,Wunderground v.1.15,2013-07-29 05:15:00,
2013-07-29 00:21:00,62.3,52.0,30.00,East,80,2.0,2.0,69,0.00,,,0.00,0,Wunderground v.1.15,2013-07-29 05:21:00,
2013-07-29 00:26:00,62.3,51.6,30.00,East,80,2.0,3.0,68,0.00,,,0.00,0,Wunderground v.1.15,2013-07-29 05:26:00,
2013-07-29 00:32:00,62.4,51.3,30.01,East,80,2.0,3.0,67,0.00,,,0.00,0,Wunderground v.1.15,2013-07-29 05:32:00,
2013-07-29 00:37:00,62.3,51.2,30.01,East,79,2.0,3.0,67,0.00,,,0.00,0,Wunderground v.1.15,2013-07-29 05:37:00,
2013-07-29 00:42:00,62.3,51.2,30.01,East,80,2.0,2.0,67,0.00,,,0.00,0,Wunderground v.1.15,2013-07-29 05:42:00,
2013-07-29 00:47:00,62.5,51.4,30.01,East,80,2.0,3.0,67,0.00,,,0.00,0,Wunderground v.1.15,2013-07-29 05:47:00,
2013-07-29 00:52:00,62.6,51.1,30.01,East,80,2.0,4.0,66,0.00,,,0.00,0,Wunderground v.1.15,2013-07-29 05:52:00,
2013-07-29 00:58:00,63.0,51.0,30.01,East,80,3.0,4.0,65,0.00,,,0.00,0,Wunderground v.1.15,2013-07-29 05:58:00,
2013-07-29 01:04:00,62.3,51.2,30.01,East,80,3.0,3.0,67,0.00,,,0.00,0,Wunderground v.1.15,2013-07-29 06:04:00,
2013-07-29 01:09:00,62.0,51.3,30.01,East,80,2.0,3.0,68,0.00,,,0.00,0,Wunderground v.1.15,2013-07-29 06:09:00,
2013-07-29 01:14:00,61.7,51.0,30.01,East,80,1.0,2.0,68,0.00,,,0.00,0,Wunderground v.1.15,2013-07-29 06:14:00,
2013-07-29 01:19:00,61.5,51.2,30.01,East,80,1.0,2.0,69,0.00,,,0.00,0,Wunderground v.1.15,2013-07-29 06:19:00,
2013-07-29 01:24:00,61.3,51.4,30.01,East,79,1.0,2.0,70,0.00,,,0.00,0,Wunderground v.1.15,2013-07-29 06:24:00,
2013-07-29 01:30:00,60.7,51.2,30.01,East,80,1.0,2.0,71,0.00,,,0.00,0,Wunderground v.1.15,2013-07-29 06:30:00,
2013-07-29 01:35:00,60.6,51.5,30.01,East,80,2.0,2.0,72,0.00,,,0.00,0,Wunderground v.1.15,2013-07-29 06:35:00,
2013-07-29 01:40:00,60.1,52.1,30.01,East,79,2.0,2.0,75,0.00,,,0.00,0,Wunderground v.1.15,2013-07-29 06:40:00,
2013-07-29 01:46:00,59.6,52.7,30.01,East,80,2.0,3.0,78,0.00,,,0.00,0,Wunderground v.1.15,2013-07-29 06:46:00,
2013-07-29 01:52:00,59.6,52.4,30.00,East,80,2.0,3.0,77,0.00,,,0.00,0,Wunderground v.1.15,2013-07-29 06:52:00,
2013-07-29 01:57:00,60.1,52.5,30.01,East,79,2.0,3.0,76,0.00,,,0.00,0,Wunderground v.1.15,2013-07-29 06:57:00,
2013-07-29 02:03:00,60.1,52.1,30.01,East,80,2.0,3.0,75,0.00,,,0.00,0,Wunderground v.1.15,2013-07-29 07:03:00,
2013-07-29 02:08:00,59.8,52.2,30.01,East,80,1.0,3.0,76,0.00,,,0.00,0,Wunderground v.1.15,2013-07-29 07:08:00,
2013-07-29 02:13:00,59.6,52.7,30.01,East,80,0.0,1.0,78,0.00,,,0.00,0,Wunderground v.1.15,2013-07-29 07:13:00,
2013-07-29 02:18:00,59.4,52.9,30.01,East,80,0.0,2.0,79,0.00,,,0.00,0,Wunderground v.1.15,2013-07-29 07:18:00,
2013-07-29 02:24:00,59.4,53.2,30.01,East,79,1.0,3.0,80,0.00,,,0.00,0,Wunderground v.1.15,2013-07-29 07:24:00,
2013-07-29 02:30:00,59.6,53.4,30.01,East,80,2.0,2.0,80,0.00,,,0.00,0,Wunderground v.1.15,2013-07-29 07:30:00,
2013-07-29 02:36:00,60.0,53.1,30.01,East,80,1.0,2.0,78,0.00,,,0.00,0,Wunderground v.1.15,2013-07-29 07:36:00,
2013-07-29 02:42:00,60.2,53.0,30.01,East,80,2.0,2.0,77,0.00,,,0.00,0,Wunderground v.1.15,2013-07-29 07:42:00,
2013-07-29 02:47:00,60.5,53.3,30.01,East,80,2.0,3.0,77,0.00,,,0.00,0,Wunderground v.1.15,2013-07-29 07:47:00,
2013-07-29 02:52:00,60.8,52.8,30.01,East,79,3.0,3.0,75,0.00,,,0.00,0,Wunderground v.1.15,2013-07-29 07:52:00,
2013-07-29 02:57:00,61.1,52.7,30.01,East,80,2.0,3.0,74,0.00,,,0.00,0,Wunderground v.1.15,2013-07-29 07:57:00,
2013-07-29 03:03:00,61.3,52.9,30.01,East,79,3.0,3.0,74,0.00,,,0.00,0,Wunderground v.1.15,2013-07-29 08:03:00,
2013-07-29 03:08:00,61.4,53.0,30.01,East,80,3.0,4.0,74,0.00,,,0.00,0,Wunderground v.1.15,2013-07-29 08:08:00,
2013-07-29 03:13:00,61.3,52.6,30.01,East,80,3.0,4.0,73,0.00,,,0.00,0,Wunderground v.1.15,2013-07-29 08:13:00,
2013-07-29 03:19:00,61.2,52.8,30.00,East,80,3.0,4.0,74,0.00,,,0.00,0,Wunderground v.1.15,2013-07-29 08:19:00,
2013-07-29 03:24:00,61.0,52.7,30.00,East,79,3.0,4.0,74,0.00,,,0.00,0,Wunderground v.1.15,2013-07-29 08:24:00,
2013-07-29 03:30:00,60.9,52.6,30.01,East,80,3.0,3.0,74,0.00,,,0.00,0,Wunderground v.1.15,2013-07-29 08:30:00,
2013-07-29 03:37:00,60.7,52.7,30.01,East,80,2.0,3.0,75,0.00,,,0.00,0,Wunderground v.1.15,2013-07-29 08:37:00,
2013-07-29 03:42:00,60.5,52.9,30.01,East,80,2.0,2.0,76,0.00,,,0.00,0,Wunderground v.1.15,2013-07-29 08:42:00,
2013-07-29 03:47:00,60.3,53.1,30.01,East,80,2.0,2.0,77,0.00,,,0.00,0,Wunderground v.1.15,2013-07-29 08:47:00,
2013-07-29 03:52:00,60.1,53.2,30.00,East,80,2.0,2.0,78,0.00,,,0.00,0,Wunderground v.1.15,2013-07-29 08:52:00,
2013-07-29 03:57:00,60.0,52.8,30.01,East,80,1.0,2.0,77,0.00,,,0.00,0,Wunderground v.1.15,2013-07-29 08:57:00,
2013-07-29 04:03:00,60.3,52.7,30.01,East,80,1.0,3.0,76,0.00,,,0.00,0,Wunderground v.1.15,2013-07-29 09:03:00,
2013-07-29 04:09:00,60.3,52.3,30.01,East,80,2.0,3.0,75,0.00,,,0.00,0,Wunderground v.1.15,2013-07-29 09:09:00,
2013-07-29 04:14:00,60.4,52.4,30.01,East,79,2.0,4.0,75,0.00,,,0.00,0,Wunderground v.1.15,2013-07-29 09:14:00,
2013-07-29 04:20:00,60.2,52.2,30.01,East,80,2.0,3.0,75,0.00,,,0.00,0,Wunderground v.1.15,2013-07-29 09:20:00,
2013-07-29 04:25:00,60.2,52.2,30.01,East,80,2.0,3.0,75,0.00,,,0.00,0,Wunderground v.1.15,2013-07-29 09:25:00,
2013-07-29 04:30:00,60.2,52.2,30.01,East,80,3.0,4.0,75,0.00,,,0.00,0,Wunderground v.1.15,2013-07-29 09:30:00,
2013-07-29 04:35:00,60.4,52.4,30.00,East,80,4.0,5.0,75,0.00,,,0.00,0,Wunderground v.1.15,2013-07-29 09:35:00,
2013-07-29 04:41:00,60.5,52.5,30.00,East,80,4.0,5.0,75,0.00,,,0.00,0,Wunderground v.1.15,2013-07-29 09:41:00,
2013-07-29 04:46:00,60.7,52.4,30.00,East,80,4.0,5.0,74,0.00,,,0.00,0,Wunderground v.1.15,2013-07-29 09:46:00,
2013-07-29 04:51:00,60.8,52.5,30.00,East,80,4.0,5.0,74,0.00,,,0.00,0,Wunderground v.1.15,2013-07-29 09:51:00,
2013-07-29 04:57:00,61.1,52.0,30.00,East,80,4.0,5.0,72,0.00,,,0.00,0,Wunderground v.1.15,2013-07-29 09:57:00,
2013-07-29 05:02:00,61.2,52.1,30.00,East,80,4.0,5.0,72,0.00,,,0.00,0,Wunderground v.1.15,2013-07-29 10:02:00,
2013-07-29 05:08:00,61.3,52.2,30.00,East,80,4.0,5.0,72,0.00,,,0.00,0,Wunderground v.1.15,2013-07-29 10:08:00,
2013-07-29 05:14:00,61.4,51.9,30.00,ESE,111,5.0,8.0,71,0.00,,,0.00,0,Wunderground v.1.15,2013-07-29 10:14:00,
2013-07-29 05:19:00,61.4,51.9,30.00,ESE,113,5.0,8.0,71,0.00,,,0.00,0,Wunderground v.1.15,2013-07-29 10:19:00,
2013-07-29 05:25:00,61.2,52.1,30.00,ESE,113,4.0,6.0,72,0.00,,,0.00,0,Wunderground v.1.15,2013-07-29 10:25:00,
2013-07-29 05:31:00,61.1,52.0,30.00,ESE,113,4.0,4.0,72,0.00,,,0.00,0,Wunderground v.1.15,2013-07-29 10:31:00,
2013-07-29 05:36:00,60.7,52.7,30.00,ESE,113,3.0,4.0,75,0.00,,,0.00,0,Wunderground v.1.15,2013-07-29 10:36:00,
2013-07-29 05:41:00,60.7,52.4,30.00,ESE,113,3.0,6.0,74,0.00,,,0.00,0,Wunderground v.1.15,2013-07-29 10:41:00,
2013-07-29 05:46:00,60.5,52.5,30.00,SE,124,4.0,7.0,75,0.00,,,0.00,0,Wunderground v.1.15,2013-07-29 10:46:00,
2013-07-29 05:52:00,60.9,52.2,30.00,ESE,123,5.0,8.0,73,0.00,,,0.00,0,Wunderground v.1.15,2013-07-29 10:52:00,
2013-07-29 05:57:00,61.1,52.4,29.99,ESE,123,5.0,8.0,73,0.00,,,0.00,0,Wunderground v.1.15,2013-07-29 10:57:00,
2013-07-29 06:02:00,61.2,52.1,30.00,ESE,123,5.0,5.0,72,0.00,,,0.00,0,Wunderground v.1.15,2013-07-29 11:02:00,
2013-07-29 06:08:00,61.3,52.6,30.00,ESE,123,4.0,5.0,73,0.00,,,0.00,0,Wunderground v.1.15,2013-07-29 11:08:00,
2013-07-29 06:14:00,61.3,52.6,30.00,ESE,123,4.0,7.0,73,0.00,,,0.00,0,Wunderground v.1.15,2013-07-29 11:14:00,
2013-07-29 06:20:00,61.1,53.5,30.00,ESE,123,4.0,4.0,76,0.00,,,0.00,5,Wunderground v.1.15,2013-07-29 11:20:00,
2013-07-29 06:25:00,60.9,52.9,30.00,ESE,123,2.0,4.0,75,0.00,,,0.00,7,Wunderground v.1.15,2013-07-29 11:25:00,
2013-07-29 06:30:00,61.1,53.1,30.00,ESE,123,1.0,3.0,75,0.00,,,0.00,7,Wunderground v.1.15,2013-07-29 11:30:00,
2013-07-29 06:37:00,61.2,53.2,30.00,ESE,123,2.0,5.0,75,0.00,,,0.00,9,Wunderground v.1.15,2013-07-29 11:37:00,
2013-07-29 06:43:00,60.9,53.6,30.00,ESE,123,2.0,3.0,77,0.00,,,0.00,14,Wunderground v.1.15,2013-07-29 11:43:00,
2013-07-29 06:48:00,60.7,53.8,30.00,ESE,123,2.0,4.0,78,0.00,,,0.00,26,Wunderground v.1.15,2013-07-29 11:48:00,
2013-07-29 06:54:00,60.6,53.7,30.01,ESE,123,2.0,3.0,78,0.00,,,0.00,28,Wunderground v.1.15,2013-07-29 11:54:00,
2013-07-29 06:59:00,60.7,54.1,30.01,ESE,123,3.0,4.0,79,0.00,,,0.00,25,Wunderground v.1.15,2013-07-29 11:59:00,
2013-07-29 07:05:00,61.0,53.7,30.01,ESE,123,3.0,3.0,77,0.00,,,0.00,11,Wunderground v.1.15,2013-07-29 12:05:00,
2013-07-29 07:10:00,61.0,53.7,30.01,ESE,123,3.0,4.0,77,0.00,,,0.00,7,Wunderground v.1.15,2013-07-29 12:10:00,
2013-07-29 07:16:00,60.8,54.2,30.01,ESE,123,3.0,5.0,79,0.00,,,0.00,9,Wunderground v.1.15,2013-07-29 12:16:00,
2013-07-29 07:21:00,60.9,54.0,30.01,ESE,123,4.0,7.0,78,0.00,,,0.00,9,Wunderground v.1.15,2013-07-29 12:21:00,
2013-07-29 07:27:00,60.7,54.5,30.01,ESE,123,4.0,7.0,80,0.00,,,0.00,9,Wunderground v.1.15,2013-07-29 12:27:00,
2013-07-29 07:32:00,60.4,54.9,30.01,ESE,123,3.0,5.0,82,0.00,,,0.00,12,Wunderground v.1.15,2013-07-29 12:32:00,
2013-07-29 07:37:00,60.0,55.2,30.01,ESE,123,3.0,5.0,84,0.00,,,0.00,11,Wunderground v.1.15,2013-07-29 12:37:00,
2013-07-29 07:43:00,59.4,55.2,30.01,ESE,123,3.0,3.0,86,0.00,,,0.01,14,Wunderground v.1.15,2013-07-29 12:43:00,
2013-07-29 07:49:00,59.1,55.2,30.01,ESE,123,2.0,3.0,87,0.00,,,0.01,16,Wunderground v.1.15,2013-07-29 12:49:00,
2013-07-29 07:55:00,59.1,55.5,30.01,ESE,123,3.0,3.0,88,0.05,,,0.01,16,Wunderground v.1.15,2013-07-29 12:55:00,
2013-07-29 08:02:00,59.0,55.4,30.01,ESE,123,3.0,4.0,88,0.05,,,0.02,19,Wunderground v.1.15,2013-07-29 13:02:00,
2013-07-29 08:07:00,58.9,55.7,30.01,ESE,123,3.0,4.0,89,0.08,,,0.03,42,Wunderground v.1.15,2013-07-29 13:07:00,
2013-07-29 08:12:00,59.0,56.1,30.01,ESE,123,3.0,4.0,90,0.10,,,0.04,47,Wunderground v.1.15,2013-07-29 13:12:00,
2013-07-29 08:17:00,59.1,56.2,30.01,ESE,123,3.0,4.0,90,0.14,,,0.05,51,Wunderground v.1.15,2013-07-29 13:17:00,
2013-07-29 08:22:00,59.2,56.6,30.01,ESE,123,4.0,4.0,91,0.07,,,0.05,44,Wunderground v.1.15,2013-07-29 13:22:00,
2013-07-29 08:28:00,59.3,56.7,30.01,ESE,123,3.0,4.0,91,0.04,,,0.06,47,Wunderground v.1.15,2013-07-29 13:28:00,
2013-07-29 08:33:00,59.3,56.7,30.01,ESE,123,3.0,4.0,91,0.04,,,0.06,74,Wunderground v.1.15,2013-07-29 13:33:00,
2013-07-29 08:38:00,59.5,57.2,30.01,ESE,123,3.0,5.0,92,0.06,,,0.07,70,Wunderground v.1.15,2013-07-29 13:38:00,
2013-07-29 08:44:00,59.6,57.3,30.01,ESE,123,3.0,3.0,92,0.06,,,0.07,62,Wunderground v.1.15,2013-07-29 13:44:00,
2013-07-29 08:50:00,59.7,57.4,30.01,ESE,120,4.0,4.0,92,0.04,,,0.07,67,Wunderground v.1.15,2013-07-29 13:50:00,
2013-07-29 08:56:00,59.6,57.3,30.01,ESE,120,4.0,5.0,92,0.00,,,0.07,91,Wunderground v.1.15,2013-07-29 13:56:00,
2013-07-29 09:02:00,59.6,57.3,30.01,ESE,119,4.0,5.0,92,0.00,,,0.07,60,Wunderground v.1.15,2013-07-29 14:02:00,
2013-07-29 09:07:00,59.7,57.4,30.01,ESE,119,4.0,5.0,92,0.00,,,0.07,49,Wunderground v.1.15,2013-07-29 14:07:00,
2013-07-29 09:12:00,59.8,57.5,30.01,ESE,118,4.0,5.0,92,0.00,,,0.07,40,Wunderground v.1.15,2013-07-29 14:12:00,
2013-07-29 09:17:00,59.6,57.3,30.01,ESE,112,5.0,9.0,92,0.00,,,0.08,39,Wunderground v.1.15,2013-07-29 14:17:00,
2013-07-29 09:23:00,59.4,57.1,30.01,ESE,112,5.0,6.0,92,0.00,,,0.08,62,Wunderground v.1.15,2013-07-29 14:23:00,
2013-07-29 09:28:00,59.4,57.1,30.01,ESE,112,5.0,7.0,92,0.00,,,0.08,76,Wunderground v.1.15,2013-07-29 14:28:00,
2013-07-29 09:33:00,59.6,57.6,30.01,ESE,112,5.0,7.0,93,0.00,,,0.08,72,Wunderground v.1.15,2013-07-29 14:33:00,
2013-07-29 09:38:00,59.6,57.6,30.01,ESE,111,5.0,7.0,93,0.00,,,0.08,65,Wunderground v.1.15,2013-07-29 14:38:00,
2013-07-29 09:44:00,59.8,57.8,30.01,ESE,111,4.0,6.0,93,0.00,,,0.08,60,Wunderground v.1.15,2013-07-29 14:44:00,
2013-07-29 09:49:00,59.9,57.9,30.01,ESE,111,5.0,6.0,93,0.00,,,0.08,67,Wunderground v.1.15,2013-07-29 14:49:00,
2013-07-29 09:54:00,59.9,57.9,30.01,ESE,111,5.0,6.0,93,0.00,,,0.08,49,Wunderground v.1.15,2013-07-29 14:54:00,
2013-07-29 10:00:00,60.0,58.0,30.01,ESE,111,5.0,5.0,93,0.00,,,0.08,62,Wunderground v.1.15,2013-07-29 15:00:00,
2013-07-29 10:05:00,60.1,58.1,30.01,ESE,109,5.0,7.0,93,0.00,,,0.08,76,Wunderground v.1.15,2013-07-29 15:05:00,
2013-07-29 10:10:00,60.2,58.2,30.01,ESE,110,5.0,7.0,93,0.00,,,0.09,84,Wunderground v.1.15,2013-07-29 15:10:00,
2013-07-29 10:17:00,60.4,58.4,30.01,ESE,110,5.0,7.0,93,0.06,,,0.09,79,Wunderground v.1.15,2013-07-29 15:17:00,
2013-07-29 10:22:00,60.5,58.5,30.01,ESE,112,5.0,6.0,93,0.06,,,0.10,123,Wunderground v.1.15,2013-07-29 15:22:00,
2013-07-29 10:27:00,60.7,58.7,30.01,ESE,119,5.0,9.0,93,0.06,,,0.10,120,Wunderground v.1.15,2013-07-29 15:27:00,
2013-07-29 10:32:00,60.6,58.6,30.01,ESE,117,6.0,8.0,93,0.04,,,0.10,100,Wunderground v.1.15,2013-07-29 15:32:00,
2013-07-29 10:38:00,60.8,58.8,30.01,SE,128,5.0,10.0,93,0.00,,,0.10,111,Wunderground v.1.15,2013-07-29 15:38:00,
2013-07-29 10:44:00,60.9,58.9,30.01,SE,128,5.0,5.0,93,0.00,,,0.10,74,Wunderground v.1.15,2013-07-29 15:44:00,
2013-07-29 10:49:00,60.8,58.8,30.01,ESE,122,5.0,7.0,93,0.00,,,0.11,86,Wunderground v.1.15,2013-07-29 15:49:00,
2013-07-29 10:55:00,60.8,58.8,30.01,ESE,116,6.0,7.0,93,0.00,,,0.11,100,Wunderground v.1.15,2013-07-29 15:55:00,
2013-07-29 11:00:00,60.9,58.9,30.01,ESE,116,6.0,6.0,93,0.00,,,0.11,104,Wunderground v.1.15,2013-07-29 16:00:00,
2013-07-29 11:06:00,61.0,59.0,30.01,ESE,119,5.0,7.0,93,0.00,,,0.11,121,Wunderground v.1.15,2013-07-29 16:06:00,
2013-07-29 11:11:00,61.1,59.1,30.01,ESE,121,6.0,6.0,93,0.00,,,0.11,163,Wunderground v.1.15,2013-07-29 16:11:00,
2013-07-29 11:16:00,61.4,59.7,30.01,ESE,118,6.0,8.0,94,0.00,,,0.11,197,Wunderground v.1.15,2013-07-29 16:16:00,
2013-07-29 11:22:00,61.7,60.0,30.01,ESE,112,6.0,10.0,94,0.00,,,0.11,195,Wunderground v.1.15,2013-07-29 16:22:00,
2013-07-29 11:28:00,61.7,59.7,30.01,ESE,111,7.0,10.0,93,0.00,,,0.11,181,Wunderground v.1.15,2013-07-29 16:28:00,
2013-07-29 11:35:00,61.7,60.0,30.01,ESE,111,7.0,9.0,94,0.00,,,0.11,181,Wunderground v.1.15,2013-07-29 16:35:00,
2013-07-29 11:41:00,61.9,60.2,30.01,ESE,112,6.0,8.0,94,0.00,,,0.11,176,Wunderground v.1.15,2013-07-29 16:41:00,
2013-07-29 11:46:00,62.2,60.5,30.01,SE,131,6.0,8.0,94,0.00,,,0.11,216,Wunderground v.1.15,2013-07-29 16:46:00,
2013-07-29 11:52:00,62.2,60.5,30.00,ESE,122,8.0,9.0,94,0.00,,,0.11,220,Wunderground v.1.15,2013-07-29 16:52:00,
2013-07-29 11:58:00,62.3,60.6,30.00,ESE,117,8.0,9.0,94,0.00,,,0.12,186,Wunderground v.1.15,2013-07-29 16:58:00,
2013-07-29 12:03:00,62.4,60.7,30.00,ESE,118,8.0,10.0,94,0.00,,,0.12,236,Wunderground v.1.15,2013-07-29 17:03:00,
2013-07-29 12:08:00,62.5,60.7,30.00,ESE,119,9.0,11.0,94,0.00,,,0.12,250,Wunderground v.1.15,2013-07-29 17:08:00,
2013-07-29 12:13:00,62.8,61.0,30.00,SE,140,10.0,11.0,94,0.00,,,0.12,262,Wunderground v.1.15,2013-07-29 17:13:00,
2013-07-29 12:19:00,63.2,61.4,30.00,ESE,119,8.0,13.0,94,0.00,,,0.12,207,Wunderground v.1.15,2013-07-29 17:19:00,
2013-07-29 12:24:00,63.2,61.4,30.00,SE,129,8.0,11.0,94,0.00,,,0.12,192,Wunderground v.1.15,2013-07-29 17:24:00,
2013-07-29 12:30:00,63.3,61.5,30.00,ESE,123,7.0,10.0,94,0.00,,,0.12,142,Wunderground v.1.15,2013-07-29 17:30:00,
2013-07-29 12:35:00,63.3,61.5,30.00,ESE,113,7.0,10.0,94,0.00,,,0.12,158,Wunderground v.1.15,2013-07-29 17:35:00,
2013-07-29 12:40:00,63.3,61.5,30.00,SE,126,8.0,8.0,94,0.00,,,0.12,153,Wunderground v.1.15,2013-07-29 17:40:00,
2013-07-29 12:46:00,63.3,61.5,30.00,ESE,111,8.0,9.0,94,0.00,,,0.12,151,Wunderground v.1.15,2013-07-29 17:46:00,
2013-07-29 12:51:00,63.5,61.7,29.99,SE,125,9.0,13.0,94,0.00,,,0.12,172,Wunderground v.1.15,2013-07-29 17:51:00,
2013-07-29 12:57:00,63.5,61.7,29.99,ESE,118,10.0,15.0,94,0.00,,,0.12,142,Wunderground v.1.15,2013-07-29 17:57:00,
2013-07-29 13:02:00,63.6,61.5,29.99,ESE,113,10.0,11.0,93,0.00,,,0.12,137,Wunderground v.1.15,2013-07-29 18:02:00,
2013-07-29 13:07:00,63.6,61.5,29.99,SE,140,10.0,11.0,93,0.00,,,0.12,100,Wunderground v.1.15,2013-07-29 18:07:00,
2013-07-29 13:12:00,63.6,61.5,29.99,ESE,122,9.0,10.0,93,0.00,,,0.12,116,Wunderground v.1.15,2013-07-29 18:12:00,
2013-07-29 13:18:00,63.7,61.6,29.99,SE,138,8.0,13.0,93,0.00,,,0.12,132,Wunderground v.1.15,2013-07-29 18:18:00,
2013-07-29 13:24:00,63.8,61.7,29.99,SE,131,10.0,13.0,93,0.00,,,0.12,153,Wunderground v.1.15,2013-07-29 18:24:00,
2013-07-29 13:30:00,64.0,61.9,29.99,ESE,123,11.0,11.0,93,0.00,,,0.12,167,Wunderground v.1.15,2013-07-29 18:30:00,
2013-07-29 13:37:00,64.2,61.8,29.99,ESE,120,10.0,14.0,92,0.00,,,0.12,139,Wunderground v.1.15,2013-07-29 18:37:00,
2013-07-29 13:43:00,64.1,61.7,29.99,SE,138,9.0,13.0,92,0.00,,,0.12,105,Wunderground v.1.15,2013-07-29 18:43:00,
2013-07-29 13:48:00,63.8,61.4,29.99,ESE,117,10.0,13.0,92,0.00,,,0.12,151,Wunderground v.1.15,2013-07-29 18:48:00,
2013-07-29 13:54:00,63.8,61.4,29.99,ESE,110,11.0,11.0,92,0.00,,,0.12,141,Wunderground v.1.15,2013-07-29 18:54:00,
2013-07-29 14:00:00,64.0,61.6,29.99,SE,125,9.0,11.0,92,0.00,,,0.12,153,Wunderground v.1.15,2013-07-29 19:00:00,
2013-07-29 14:05:00,64.2,61.8,29.99,SE,124,9.0,12.0,92,0.00,,,0.12,179,Wunderground v.1.15,2013-07-29 19:05:00,
2013-07-29 14:11:00,64.5,62.1,29.99,ESE,115,9.0,14.0,92,0.00,,,0.12,160,Wunderground v.1.15,2013-07-29 19:11:00,
2013-07-29 14:17:00,64.5,61.8,29.99,SE,126,10.0,14.0,91,0.00,,,0.12,172,Wunderground v.1.15,2013-07-29 19:17:00,
2013-07-29 14:22:00,64.5,62.1,29.99,ESE,116,11.0,11.0,92,0.00,,,0.12,144,Wunderground v.1.15,2013-07-29 19:22:00,
2013-07-29 14:28:00,64.6,61.9,29.99,ESE,111,11.0,14.0,91,0.00,,,0.12,135,Wunderground v.1.15,2013-07-29 19:28:00,
2013-07-29 14:34:00,64.8,62.4,29.99,ESE,102,9.0,10.0,92,0.00,,,0.12,105,Wunderground v.1.15,2013-07-29 19:34:00,
2013-07-29 14:39:00,64.9,62.2,29.99,ESE,121,9.0,16.0,91,0.00,,,0.12,128,Wunderground v.1.15,2013-07-29 19:39:00,
2013-07-29 14:45:00,64.8,62.1,29.99,ESE,120,10.0,13.0,91,0.00,,,0.12,149,Wunderground v.1.15,2013-07-29 19:45:00,
2013-07-29 14:50:00,64.9,62.2,29.99,SE,140,10.0,11.0,91,0.00,,,0.12,137,Wunderground v.1.15,2013-07-29 19:50:00,
2013-07-29 14:57:00,65.0,62.3,29.99,SE,129,10.0,13.0,91,0.00,,,0.12,105,Wunderground v.1.15,2013-07-29 19:57:00,
2013-07-29 15:02:00,64.9,62.2,29.99,ESE,115,10.0,10.0,91,0.00,,,0.12,91,Wunderground v.1.15,2013-07-29 20:02:00,
2013-07-29 15:07:00,64.8,62.1,29.99,SE,124,9.0,11.0,91,0.00,,,0.12,120,Wunderground v.1.15,2013-07-29 20:07:00,
2013-07-29 15:13:00,65.0,62.6,29.98,ESE,123,10.0,12.0,92,0.00,,,0.12,158,Wunderground v.1.15,2013-07-29 20:13:00,
2013-07-29 15:19:00,65.1,62.4,29.98,ESE,123,9.0,13.0,91,0.00,,,0.12,116,Wunderground v.1.15,2013-07-29 20:19:00,
2013-07-29 15:24:00,65.2,62.5,29.99,SE,138,9.0,11.0,91,0.00,,,0.12,98,Wunderground v.1.15,2013-07-29 20:24:00,
2013-07-29 15:29:00,65.2,62.5,29.99,ESE,123,9.0,11.0,91,0.00,,,0.12,93,Wunderground v.1.15,2013-07-29 20:29:00,
2013-07-29 15:35:00,65.4,63.0,29.99,ESE,119,8.0,9.0,92,0.00,,,0.12,118,Wunderground v.1.15,2013-07-29 20:35:00,
2013-07-29 15:42:00,65.5,63.1,29.99,SE,131,7.0,7.0,92,0.00,,,0.12,100,Wunderground v.1.15,2013-07-29 20:42:00,
2013-07-29 15:47:00,65.5,62.8,29.99,ESE,119,6.0,10.0,91,0.00,,,0.12,91,Wunderground v.1.15,2013-07-29 20:47:00,
2013-07-29 15:53:00,65.6,62.9,29.98,ESE,116,8.0,11.0,91,0.00,,,0.12,139,Wunderground v.1.15,2013-07-29 20:53:00,
2013-07-29 15:59:00,65.8,63.1,29.99,SE,128,8.0,13.0,91,0.00,,,0.12,120,Wunderground v.1.15,2013-07-29 20:59:00,
2013-07-29 16:05:00,65.8,63.1,29.99,SE,127,8.0,10.0,91,0.00,,,0.12,95,Wunderground v.1.15,2013-07-29 21:05:00,
2013-07-29 16:10:00,65.8,63.1,29.99,ESE,119,8.0,8.0,91,0.00,,,0.12,67,Wunderground v.1.15,2013-07-29 21:10:00,
2013-07-29 16:15:00,65.8,63.1,29.99,ESE,119,7.0,10.0,91,0.00,,,0.12,60,Wunderground v.1.15,2013-07-29 21:15:00,
2013-07-29 16:21:00,65.7,63.0,29.99,SE,136,7.0,8.0,91,0.00,,,0.12,84,Wunderground v.1.15,2013-07-29 21:21:00,
2013-07-29 16:27:00,65.9,63.2,29.98,SE,142,8.0,10.0,91,0.00,,,0.12,97,Wunderground v.1.15,2013-07-29 21:27:00,
2013-07-29 16:33:00,66.0,63.6,29.98,ESE,115,8.0,8.0,92,0.00,,,0.12,83,Wunderground v.1.15,2013-07-29 21:33:00,
2013-07-29 16:39:00,66.0,63.3,29.98,ESE,118,8.0,14.0,91,0.00,,,0.12,91,Wunderground v.1.15,2013-07-29 21:39:00,
2013-07-29 16:44:00,66.1,63.4,29.98,ESE,123,9.0,13.0,91,0.00,,,0.12,84,Wunderground v.1.15,2013-07-29 21:44:00,
2013-07-29 16:49:00,66.1,63.4,29.98,SE,126,9.0,13.0,91,0.00,,,0.12,77,Wunderground v.1.15,2013-07-29 21:49:00,
2013-07-29 16:54:00,66.1,63.4,29.98,SE,130,7.0,9.0,91,0.00,,,0.12,62,Wunderground v.1.15,2013-07-29 21:54:00,
2013-07-29 17:00:00,66.2,63.5,29.98,ESE,115,6.0,8.0,91,0.00,,,0.12,77,Wunderground v.1.15,2013-07-29 22:00:00,
2013-07-29 17:06:00,66.2,63.5,29.98,SE,128,6.0,8.0,91,0.00,,,0.12,72,Wunderground v.1.15,2013-07-29 22:06:00,
2013-07-29 17:11:00,66.2,63.5,29.98,SSE,153,7.0,7.0,91,0.00,,,0.12,53,Wunderground v.1.15,2013-07-29 22:11:00,
2013-07-29 17:17:00,66.1,63.1,29.98,ESE,115,8.0,11.0,90,0.00,,,0.12,63,Wunderground v.1.15,2013-07-29 22:17:00,
2013-07-29 17:23:00,66.1,63.1,29.98,SE,130,9.0,10.0,90,0.00,,,0.12,62,Wunderground v.1.15,2013-07-29 22:23:00,
2013-07-29 17:28:00,66.1,63.4,29.98,SE,124,8.0,10.0,91,0.00,,,0.12,49,Wunderground v.1.15,2013-07-29 22:28:00,
2013-07-29 17:33:00,66.1,63.4,29.98,ESE,115,7.0,12.0,91,0.00,,,0.12,53,Wunderground v.1.15,2013-07-29 22:33:00,
2013-07-29 17:38:00,65.9,63.2,29.98,ESE,116,8.0,12.0,91,0.00,,,0.12,49,Wunderground v.1.15,2013-07-29 22:38:00,
2013-07-29 17:44:00,65.8,63.1,29.98,SE,124,8.0,9.0,91,0.00,,,0.12,39,Wunderground v.1.15,2013-07-29 22:44:00,
2013-07-29 17:49:00,65.7,63.0,29.98,East,101,9.0,11.0,91,0.00,,,0.12,35,Wunderground v.1.15,2013-07-29 22:49:00,
2013-07-29 17:55:00,65.7,63.0,29.98,ESE,117,10.0,11.0,91,0.00,,,0.12,40,Wunderground v.1.15,2013-07-29 22:55:00,
2013-07-29 18:01:00,65.6,62.9,29.98,ESE,115,9.0,9.0,91,0.00,,,0.12,47,Wunderground v.1.15,2013-07-29 23:01:00,
2013-07-29 18:06:00,65.6,62.9,29.97,ESE,113,9.0,12.0,91,0.00,,,0.12,56,Wunderground v.1.15,2013-07-29 23:06:00,
2013-07-29 18:11:00,65.6,63.2,29.98,ESE,113,8.0,12.0,92,0.00,,,0.12,47,Wunderground v.1.15,2013-07-29 23:11:00,
2013-07-29 18:17:00,65.6,62.9,29.98,ESE,110,7.0,12.0,91,0.00,,,0.12,44,Wunderground v.1.15,2013-07-29 23:17:00,
2013-07-29 18:23:00,65.5,62.8,29.97,SE,126,9.0,11.0,91,0.00,,,0.12,67,Wunderground v.1.15,2013-07-29 23:23:00,
2013-07-29 18:29:00,65.6,63.2,29.97,ESE,115,9.0,11.0,92,0.00,,,0.12,74,Wunderground v.1.15,2013-07-29 23:29:00,
2013-07-29 18:34:00,65.7,63.3,29.97,ESE,121,8.0,9.0,92,0.00,,,0.12,79,Wunderground v.1.15,2013-07-29 23:34:00,
2013-07-29 18:40:00,65.7,63.3,29.96,ESE,119,8.0,8.0,92,0.00,,,0.12,79,Wunderground v.1.15,2013-07-29 23:40:00,
2013-07-29 18:46:00,65.9,63.5,29.96,ESE,108,7.0,11.0,92,0.00,,,0.12,60,Wunderground v.1.15,2013-07-29 23:46:00,
2013-07-29 18:51:00,65.8,63.4,29.96,ESE,111,6.0,8.0,92,0.00,,,0.12,33,Wunderground v.1.15,2013-07-29 23:51:00,
2013-07-29 18:58:00,65.8,63.4,29.96,SE,131,6.0,9.0,92,0.00,,,0.12,44,Wunderground v.1.15,2013-07-29 23:58:00,
2013-07-29 19:03:00,65.9,63.5,29.96,ESE,115,5.0,8.0,92,0.00,,,0.12,33,Wunderground v.1.15,2013-07-30 00:03:00,
2013-07-29 19:10:00,65.9,63.5,29.96,ESE,107,6.0,9.0,92,0.00,,,0.12,25,Wunderground v.1.15,2013-07-30 00:10:00,
2013-07-29 19:15:00,65.8,63.4,29.96,ESE,108,6.0,7.0,92,0.00,,,0.12,23,Wunderground v.1.15,2013-07-30 00:15:00,
2013-07-29 19:20:00,65.9,63.5,29.97,ESE,108,5.0,5.0,92,0.00,,,0.12,19,Wunderground v.1.15,2013-07-30 00:20:00,
2013-07-29 19:26:00,65.8,63.4,29.97,ESE,103,6.0,10.0,92,0.00,,,0.12,16,Wunderground v.1.15,2013-07-30 00:26:00,
2013-07-29 19:31:00,65.8,63.4,29.97,East,100,8.0,8.0,92,0.00,,,0.12,14,Wunderground v.1.15,2013-07-30 00:31:00,
2013-07-29 19:38:00,65.9,63.5,29.97,ESE,111,7.0,9.0,92,0.00,,,0.12,19,Wunderground v.1.15,2013-07-30 00:38:00,
2013-07-29 19:43:00,65.9,63.5,29.97,East,92,6.0,9.0,92,0.00,,,0.12,37,Wunderground v.1.15,2013-07-30 00:43:00,
2013-07-29 19:49:00,66.0,63.6,29.96,ESE,121,8.0,11.0,92,0.00,,,0.12,49,Wunderground v.1.15,2013-07-30 00:49:00,
2013-07-29 19:55:00,66.0,63.6,29.96,ESE,106,9.0,14.0,92,0.00,,,0.12,30,Wunderground v.1.15,2013-07-30 00:55:00,
2013-07-29 20:01:00,66.0,63.6,29.96,SE,129,9.0,9.0,92,0.00,,,0.12,12,Wunderground v.1.15,2013-07-30 01:01:00,
2013-07-29 20:06:00,65.9,63.5,29.97,ESE,109,8.0,11.0,92,0.00,,,0.12,9,Wunderground v.1.15,2013-07-30 01:06:00,
2013-07-29 20:12:00,65.6,63.2,29.97,ESE,119,6.0,7.0,92,0.00,,,0.12,7,Wunderground v.1.15,2013-07-30 01:12:00,
2013-07-29 20:17:00,65.6,63.5,29.97,ESE,115,6.0,11.0,93,0.00,,,0.12,5,Wunderground v.1.15,2013-07-30 01:17:00,
2013-07-29 20:23:00,65.4,63.3,29.97,ESE,107,7.0,7.0,93,0.00,,,0.12,0,Wunderground v.1.15,2013-07-30 01:23:00,
2013-07-29 20:28:00,65.3,63.2,29.97,ESE,118,7.0,10.0,93,0.00,,,0.12,0,Wunderground v.1.15,2013-07-30 01:28:00,
2013-07-29 20:34:00,65.2,63.1,29.97,SE,126,9.0,10.0,93,0.00,,,0.12,0,Wunderground v.1.15,2013-07-30 01:34:00,
2013-07-29 20:40:00,65.1,63.3,29.98,ESE,112,9.0,9.0,94,0.00,,,0.12,0,Wunderground v.1.15,2013-07-30 01:40:00,
2013-07-29 20:47:00,65.0,63.2,29.98,ESE,115,8.0,9.0,94,0.00,,,0.12,0,Wunderground v.1.15,2013-07-30 01:47:00,
2013-07-29 20:52:00,64.9,63.4,29.98,ESE,117,6.0,7.0,95,0.00,,,0.12,0,Wunderground v.1.15,2013-07-30 01:52:00,
2013-07-29 20:59:00,64.8,63.3,29.98,ESE,117,6.0,11.0,95,0.00,,,0.12,0,Wunderground v.1.15,2013-07-30 01:59:00,
2013-07-29 21:04:00,64.7,63.2,29.98,ESE,110,6.0,9.0,95,0.00,,,0.12,0,Wunderground v.1.15,2013-07-30 02:04:00,
2013-07-29 21:10:00,64.7,63.2,29.98,ESE,104,7.0,7.0,95,0.00,,,0.12,0,Wunderground v.1.15,2013-07-30 02:10:00,
2013-07-29 21:17:00,64.7,63.2,29.98,ESE,107,7.0,9.0,95,0.00,,,0.12,0,Wunderground v.1.15,2013-07-30 02:17:00,
2013-07-29 21:23:00,64.7,63.5,29.99,ESE,110,5.0,8.0,96,0.00,,,0.12,0,Wunderground v.1.15,2013-07-30 02:23:00,
2013-07-29 21:30:00,64.7,63.5,30.00,ESE,110,5.0,5.0,96,0.00,,,0.12,0,Wunderground v.1.15,2013-07-30 02:30:00,
2013-07-29 21:35:00,64.7,63.5,29.99,ESE,110,5.0,7.0,96,0.00,,,0.12,0,Wunderground v.1.15,2013-07-30 02:35:00,
2013-07-29 21:41:00,64.8,63.6,30.00,ESE,109,4.0,6.0,96,0.00,,,0.12,0,Wunderground v.1.15,2013-07-30 02:41:00,
2013-07-29 21:46:00,64.7,63.5,30.00,SE,128,4.0,7.0,96,0.00,,,0.12,0,Wunderground v.1.15,2013-07-30 02:46:00,
2013-07-29 21:51:00,64.7,63.5,30.00,ESE,113,5.0,7.0,96,0.00,,,0.12,0,Wunderground v.1.15,2013-07-30 02:51:00,
2013-07-29 21:56:00,64.7,63.5,30.00,ESE,110,6.0,8.0,96,0.00,,,0.12,0,Wunderground v.1.15,2013-07-30 02:56:00,
2013-07-29 22:01:00,64.7,63.5,30.00,ESE,110,6.0,6.0,96,0.00,,,0.12,0,Wunderground v.1.15,2013-07-30 03:01:00,
2013-07-29 22:07:00,64.7,63.5,30.00,ESE,110,5.0,8.0,96,0.00,,,0.12,0,Wunderground v.1.15,2013-07-30 03:07:00,
2013-07-29 22:13:00,64.7,63.5,30.00,ESE,109,5.0,5.0,96,0.00,,,0.12,0,Wunderground v.1.15,2013-07-30 03:13:00,
2013-07-29 22:19:00,64.7,63.5,30.00,ESE,111,4.0,8.0,96,0.00,,,0.12,0,Wunderground v.1.15,2013-07-30 03:19:00,
2013-07-29 22:25:00,64.6,63.4,30.00,ESE,115,6.0,7.0,96,0.00,,,0.12,0,Wunderground v.1.15,2013-07-30 03:25:00,
2013-07-29 22:30:00,64.6,63.7,30.00,ESE,110,6.0,8.0,97,0.00,,,0.12,0,Wunderground v.1.15,2013-07-30 03:30:00,
2013-07-29 22:36:00,64.6,63.7,30.00,ESE,110,5.0,8.0,97,0.00,,,0.12,0,Wunderground v.1.15,2013-07-30 03:36:00,
2013-07-29 22:42:00,64.6,63.7,30.00,ESE,110,4.0,6.0,97,0.00,,,0.12,0,Wunderground v.1.15,2013-07-30 03:42:00,
2013-07-29 22:47:00,64.6,63.7,30.00,ESE,110,4.0,8.0,97,0.00,,,0.12,0,Wunderground v.1.15,2013-07-30 03:47:00,
2013-07-29 22:52:00,64.6,63.7,30.00,ESE,110,4.0,4.0,97,0.00,,,0.12,0,Wunderground v.1.15,2013-07-30 03:52:00,
2013-07-29 22:58:00,64.6,63.7,30.00,ESE,110,4.0,7.0,97,0.00,,,0.12,0,Wunderground v.1.15,2013-07-30 03:58:00,
2013-07-29 23:01:00,64.6,63.7,30.00,ESE,110,5.0,6.0,97,0.00,,,0.12,0,Wunderground v.1.15,2013-07-30 04:01:00,
2013-07-29 23:02:00,64.5,63.6,30.00,ESE,110,5.0,6.0,97,0.00,,,0.12,0,Wunderground v.1.15,2013-07-30 04:02:00,
2013-07-29 23:06:00,64.6,63.7,29.99,ESE,110,4.0,6.0,97,0.00,,,0.12,0,Wunderground v.1.15,2013-07-30 04:06:00,
2013-07-29 23:09:00,64.6,63.7,29.99,ESE,110,4.0,7.0,97,0.00,,,0.12,0,Wunderground v.1.15,2013-07-30 04:09:00,
2013-07-29 23:14:00,64.6,63.7,29.99,ESE,110,4.0,4.0,97,0.00,,,0.12,0,Wunderground v.1.15,2013-07-30 04:14:00,
2013-07-29 23:16:00,64.6,63.7,29.99,ESE,110,4.0,7.0,97,0.00,,,0.12,0,Wunderground v.1.15,2013-07-30 04:16:00,
2013-07-29 23:22:00,64.5,63.6,29.99,ESE,110,5.0,5.0,97,0.00,,,0.12,0,Wunderground v.1.15,2013-07-30 04:22:00,
2013-07-29 23:27:00,64.5,63.6,30.00,ESE,110,5.0,6.0,97,0.00,,,0.12,0,Wunderground v.1.15,2013-07-30 04:27:00,
2013-07-29 23:33:00,64.6,63.7,30.00,ESE,110,4.0,7.0,97,0.00,,,0.12,0,Wunderground v.1.15,2013-07-30 04:33:00,
2013-07-29 23:38:00,64.6,63.7,30.00,ESE,110,4.0,7.0,97,0.00,,,0.12,0,Wunderground v.1.15,2013-07-30 04:38:00,
2013-07-29 23:43:00,64.6,63.7,30.00,ESE,110,3.0,7.0,97,0.00,,,0.12,0,Wunderground v.1.15,2013-07-30 04:43:00,
2013-07-29 23:48:00,64.6,63.7,30.00,ESE,110,3.0,7.0,97,0.00,,,0.12,0,Wunderground v.1.15,2013-07-30 04:48:00,
2013-07-29 23:54:00,64.6,63.7,30.00,ESE,110,3.0,4.0,97,0.00,,,0.12,0,Wunderground v.1.15,2013-07-30 04:54:00,